Location: Unspecified
(0.0000°N, 0.0000°E)
Time: 05:54:37
(UTC+00:00)

METEOR M2 - Pass Details

Date: 13 July 2020
Orbit: 818 x 828 km, 98.5° (Epoch: 13 August)

Event Time Altitude Azimuth Distance (km) Brightness Sun altitude
Exits shadow 19:30:39 36° 106° (ESE) 1,278 ? -19.6°
Maximum altitude 19:31:44 40° 78° (ENE) 1,192 ? -19.9°
Drops below altitude 10° 19:36:44 10° 9° (N) 2,421 ? -21.0°
Sets 19:39:12 0° 2° (N) 3,351 ? -21.6°
